Showing default

OPS 9341 (IDSCS 19), 3284

Orbit data source: Space-Track

OPS 9341 (IDSCS 19), 3284 is a payload satellite owned by SAMSO (US) in GEO that was launched on Thu, 13 Jun 1968 UTC via a TITAN IIIC launch vehicle from the Air Force Eastern Test Range (AFETR). Payload-class satellites include a variety of spacecraft equipped with specific instruments for various scientific and technological missions. These include communications satellites like Starlink; space stations such as the ISS; scientific satellites like the Hubble; Earth observation satellites from companies like Planet Labs, Umbra, and HawkEye 360; GPS; miniature CubeSats for education and research; and military/defense satellites.

Not visible in the next 10 days
Identifier
3284, 1968-050A
Orbit
GEO
Country
Flag of USUS
Related business
Manufacturer
Philco-Ford
Mission
Non-operational spacecraft
Bus & Motor
IDCSP, Unknown motor
Mass
45 kg wet, 45 kg dry
Launch date (UTC)
1968-06-13 (58 years ago)
Launch vehicle
TITAN IIIC
Launch site
Air Force Eastern Test Range (AFETR)
Object type
Payload
Rocket body
Debris
Shape & HBR
Unknown
Radar Cross Section
Medium (>0.1 m² and <1 m²)

Expand to show TLE details & history
Last TLE update: 3 days ago

TLE from 3 days ago
0 OPS 9341 (IDSCS 19)
1 03284U 68050A   26031.84564444 -.00000072  00000-0  00000-0 0  9997
2 03284   6.9341  52.9640 0013560 158.4595 208.5663  1.07853685 48746
Epoch: 2026-01-31T20:17Z
TLE epoch observation values (Epoch: 2026-01-31T20:17:43.679Z)
Latitude
0.82909°
Longitude
-15.60528°
Altitude
33,833.554 km
Speed
3.147 km/s
True Right ascension
03h 59m 33s
True Declination
0° 49' 42"
Sunlit
Object was in daylight at epoch
Visualization orbit readout
Latitude
Unknown
Longitude
Unknown
Altitude
Unknown
Speed
Unknown
Apparent Right ascension
Unknown
Apparent Declination
Unknown
Sunlit
N/A
Visualization observer readout
Local Sidereal Time
16:48:20
Azimuth
Unknown
Elevation
Unknown
Doppler factor
Unknown
Orbital elements
Apogee altitude
33,842.186 km
Perigee altitude
33,733.256 km
Semi-major axis
40,165.858 km
Eccentricity
0.00136
Inclination
6.9341°
RAAN
52.964°
Arg. of periapsis
158.4595°
True anomaly
208.49211°
Mean anomaly
208.5663°
Eccentric anomaly
208.52919°
Mean motion
0.26962 °/min
Orbital period
1,335.2 mins
BSTAR
0
Loading maneuver chart data...
Computing Atmospheric mass density...
Loading historical data...
Loading historical data...
Loading historical data...
Loading historical data...
Loading historical data...
Loading historical data...
Loading historical data...

Documentation

Showing up to 5 results
|